Location: Izdebno
(52.6670°N, 16.2170°E)
Time: 20:51:19
(UTC+02:00)

FENGYUN 1C DEB - Visible Passes

Search period start: 22 April 2024 00:00
Search period end: 02 May 2024 00:00
Orbit: 853 x 933 km, 98.9° (Epoch: 16 April)

Date Brightness Start Highest point End Pass type
(mag) Time Alt. Az. Time Alt. Az. Time Alt. Az.
22 Apr ? 21:17:07 10° SW 21:21:30 24° W 21:25:57 10° NW visible
23 Apr ? 21:17:43 10° SW 21:22:05 24° W 21:26:30 10° NW visible
24 Apr ? 21:18:18 10° SW 21:22:40 24° W 21:27:03 10° NW visible
25 Apr ? 21:18:53 10° SW 21:23:13 23° W 21:27:37 10° NW visible
26 Apr ? 21:19:29 10° SW 21:23:47 23° W 21:28:10 10° NW visible
27 Apr ? 21:20:04 10° SW 21:24:22 23° W 21:28:43 10° NW visible
28 Apr ? 21:20:39 10° SW 21:24:56 23° W 21:29:16 10° NW visible
29 Apr ? 21:21:14 10° SW 21:25:30 23° W 21:29:50 10° NW visible
30 Apr ? 21:21:50 10° SW 21:26:04 22° W 21:30:22 10° NW visible
01 May ? 21:22:24 10° SW 21:26:38 22° W 21:30:56 10° NW visible
